FW0896 Weather Reports


time (UTC)temp
F
wind
direction
speed
knots
gust
knots
rain 1hr
in
rain 24hr
in
rain mn
in
humidity
%
barometer
mb
20260906020046 72 115 0.0 0.0 0.00 0.00 0.00 92 1015.9
20260906014551 73 115 0.0 0.0 0.00 0.00 0.00 91 1015.6
20260906013043 73 115 0.0 0.0 0.00 0.00 0.00 91 1015.4
20260906011541 73 115 0.0 0.0 0.00 0.00 0.00 90 1015.3
20260906010037 74 115 0.0 0.0 0.00 0.00 0.00 89 1015.1
20260906004541 74 114 0.0 0.0 0.00 0.00 0.00 88 1015.0
20260906003047 75 113 0.0 0.9 0.00 0.00 0.00 88 1014.9
20260906001534 75 113 0.0 1.7 0.00 0.00 0.00 87 1014.7
20260906000033 75 110 0.0 1.7 0.00 0.00 0.00 87 1014.7
20260905234533 75 111 0.0 1.7 0.00 0.00 0.00 87 1014.6
20260905233033 75 104 1.7 4.3 0.00 0.00 0.00 87 1014.5
20260905231538 76 85 1.7 4.3 0.00 0.00 0.00 86 1014.4
20260905230032 76 86 0.0 3.5 0.00 0.00 0.00 86 1014.4
20260905224534 77 105 0.0 4.3 0.00 0.00 0.00 85 1014.5
20260905223031 77 98 1.7 5.2 0.00 0.00 0.00 84 1014.0
20260905221530 78 86 2.6 5.2 0.00 0.00 0.00 86 1013.9
20260905220030 79 97 0.9 5.2 0.00 0.00 0.00 86 1013.7
20260905214530 79 102 2.6 4.3 0.00 0.00 0.00 86 1013.7
20260905213039 79 98 1.7 4.3 0.00 0.00 0.00 85 1014.1
20260905211533 80 70 2.6 4.3 0.00 0.00 0.00 83 1014.2
20260905210027 81 65 0.0 3.5 0.00 0.00 0.00 83 1014.3
20260905204527 81 98 1.7 4.3 0.00 0.00 0.00 83 1014.5
20260905203023 80 104 0.0 6.1 0.00 0.00 0.00 86 1014.4
20260905201520 78 97 3.5 7.8 0.00 0.00 0.00 87 1013.5
20260905200018 78 98 2.6 7.0 0.00 0.00 0.00 90 1013.4
20260905194514 77 80 2.6 9.6 0.00 0.00 0.00 91 1013.3
20260905193013 76 70 4.3 10.4 0.00 0.00 0.00 91 1013.1
20260905191512 76 63 4.3 7.8 0.00 0.00 0.00 91 1013.4
20260905190012 76 82 0.9 7.8 0.00 0.00 0.00 90 1014.6
20260905184511 76 32 3.5 7.0 0.00 0.00 0.00 91 1014.3
20260905183008 75 86 3.5 7.8 0.00 0.00 0.00 92 1014.1
20260905181509 75 79 2.6 8.7 0.00 0.00 0.00 92 1014.4
20260905180007 75 74 3.5 7.8 0.00 0.00 0.00 92 1014.6
20260905174508 75 84 2.6 5.2 0.00 0.00 0.00 94 1015.2
20260905173005 74 89 2.6 5.2 0.00 0.00 0.00 95 1015.8
20260905171512 73 67 2.6 5.2 0.00 0.00 0.00 96 1015.9
20260905170005 72 63 1.7 6.1 0.00 0.00 0.00 97 1016.2
20260905164506 72 36 1.7 2.6 0.00 0.00 0.00 97 1016.6
20260905163003 72 264 0.0 1.7 0.00 0.00 0.00 97 1016.8
20260905161503 72 255 0.0 0.0 0.00 0.00 0.00 97 1016.8
20260905160005 72 253 1.7 4.3 0.00 0.00 0.00 96 1017.1
20260905154604 72 75 0.0 0.0 0.00 0.00 0.00 97 1016.3
20260905153100 71 89 0.0 0.0 0.00 0.00 0.00 97 1016.3
20260905151558 71 89 0.0 0.0 0.00 0.00 0.00 97 1016.2
20260905150059 71 89 0.0 2.6 0.00 0.00 0.00 97 1016.0
20260905144555 71 36 1.7 4.3 0.00 0.00 0.00 96 1015.6
20260905143056 71 44 0.9 3.5 0.00 0.00 0.00 97 1015.6
20260905141552 70 38 1.7 4.3 0.00 0.00 0.00 97 1015.3
20260905140051 70 32 0.9 4.3 0.00 0.00 0.00 97 1015.2
20260905134556 70 32 1.7 4.3 0.00 0.00 0.00 96 1015.0
20260905133048 70 62 0.0 0.0 0.00 0.00 0.00 96 1015.0
20260905131551 70 62 0.0 0.0 0.00 0.00 0.00 96 1014.7
20260905130045 70 62 0.0 1.7 0.00 0.00 0.00 96 1014.7
20260905123040 70 86 1.7 4.3 0.00 0.00 0.00 96 1014.1
20260905121538 70 71 0.9 2.6 0.00 0.00 0.00 96 1013.7
20260905120036 70 91 0.9 2.6 0.00 0.00 0.00 96 1013.5
20260905114543 70 99 0.0 1.7 0.00 0.00 0.00 96 1013.2
20260905113038 70 92 0.9 2.6 0.00 0.00 0.00 96 1013.2
20260905111542 70 90 0.9 2.6 0.00 0.00 0.00 96 1013.4
20260905110035 70 89 1.7 5.2 0.00 0.00 0.00 96 1013.3
20260905104533 70 99 0.9 3.5 0.00 0.00 0.00 96 1013.0
20260905103033 70 86 1.7 4.3 0.00 0.00 0.00 96 1013.1
20260905101541 70 105 2.6 4.3 0.00 0.00 0.00 96 1013.0
20260905100030 70 94 1.7 4.3 0.00 0.00 0.00 96 1013.2
20260905094529 71 87 1.7 3.5 0.00 0.00 0.00 96 1013.3
20260905093028 71 93 0.9 3.5 0.00 0.00 0.00 96 1012.9
20260905091526 71 65 1.7 2.6 0.00 0.00 0.00 96 1012.4
20260905090023 71 70 1.7 3.5 0.00 0.00 0.00 96 1012.6
20260905084522 72 70 1.7 2.6 0.00 0.00 0.00 95 1012.7
20260905083027 72 40 0.9 1.7 0.00 0.00 0.00 95 1013.0
20260905081520 72 36 1.7 5.2 0.00 0.00 0.00 95 1013.0
20260905080020 72 42 1.7 4.3 0.00 0.00 0.00 95 1013.0
20260905074520 72 38 2.6 3.5 0.00 0.00 0.00 95 1013.0
20260905073023 72 75 1.7 3.5 0.00 0.00 0.00 95 1013.1
20260905071516 73 49 1.7 3.5 0.00 0.00 0.00 94 1012.9
20260905070016 73 68 1.7 2.6 0.00 0.00 0.00 94 1012.9
20260905064521 74 88 0.9 3.5 0.00 0.00 0.00 94 1012.8
20260905063011 74 86 0.9 2.6 0.00 0.00 0.00 94 1012.8
20260905061509 74 49 1.7 2.6 0.00 0.00 0.00 94 1013.0
20260905060015 74 54 0.9 2.6 0.00 0.00 0.00 93 1012.8
20260905054506 75 48 1.7 3.5 0.00 0.00 0.00 93 1012.8
20260905053003 75 39 2.6 4.3 0.00 0.00 0.00 93 1012.7
20260905051558 75 39 2.6 3.5 0.00 0.00 0.00 93 1012.5
20260905050054 76 48 2.6 4.3 0.00 0.00 0.00 93 1012.6
20260905044600 76 48 1.7 3.5 0.00 0.00 0.00 93 1012.7
20260905043053 76 49 2.6 5.2 0.00 0.00 0.00 92 1012.5
20260905041554 76 34 1.7 4.3 0.00 0.00 0.00 92 1012.7
20260905040051 77 33 2.6 5.2 0.00 0.00 0.00 91 1012.8
20260905034552 77 34 3.5 7.0 0.00 0.00 0.00 92 1012.7
20260905033049 78 27 5.2 7.8 0.00 0.00 0.00 92 1012.6
20260905031547 78 27 2.6 6.1 0.00 0.00 0.00 92 1012.5
20260905030052 79 25 2.6 5.2 0.00 0.00 0.00 91 1012.5
20260905024543 79 24 2.6 5.2 0.00 0.00 0.00 90 1012.1
20260905023041 80 21 1.7 3.5 0.00 0.00 0.00 89 1012.2
20260905021539 81 359 0.0 2.6 0.00 0.00 0.00 87 1012.0